Temperature
19 20 20 20 20 20 21 21 21 21 21 21 21 21 21 20 21 20 20 20 20 20 20 20 20 19 19 19 19 19 19 19 19 19 19 19 19 19 18 18 19 19 19
20 20 20 20 20 20 20 20 20 20 20 20 20 20 20 20 20 20 20 20 20 20 20 20 19 19 19 19 19 19 19 19 19 19 19 19 19 19 19 19 19 19 19
20 20 20 20 20 20 20 20 20 20 20 20 20 20 20 20 20 20 20 20 20 20 20 20 19 19 19 19 19 19 19 19 19 19 19 19 19 19 19 19 19 19 19
21 20 20 20 20 20 20 20 20 20 20 20 20 20 20 20 20 20 20 20 20 20 20 19 19 19 19 19 19 19 19 19 19 19 19 19 19 19 19 19 19 19 19
20 20 20 20 20 20 20 20 20 20 20 20 20 20 20 20 20 20 20 20 20 20 20 19 19 19 19 19 19 19 18 18 19 19 19 19 19 19 19 19 19 19 18
21 20 20 20 21 21 20 20 20 20 20 20 20 20 20 20 20 20 20 20 20 20 20 19 19 19 19 19 19 18 18 18 18 18 18 19 19 19 19 19 19 19 18
21 20 21 21 21 21 21 20 20 20 20 20 20 20 20 20 20 20 20 20 20 20 20 19 19 19 19 19 19 18 18 18 18 18 18 18 19 19 19 19 19 18 18
20 20 20 20 20 20 20 20 20 20 20 20 20 20 19 19 19 19 19 20 20 19 19 19 19 19 19 19 19 18 18 18 18 18 18 18 18 19 19 18 18 18 18
20 19 19 19 20 20 20 20 20 20 20 20 20 19 19 19 19 19 19 19 19 19 19 19 19 19 19 19 18 18 18 18 18 18 18 18 18 18 18 18 18 18 18
19 19 19 19 19 19 19 19 19 19 19 19 19 19 19 19 19 19 19 19 19 19 19 19 19 19 19 19 18 18 18 18 18 18 18 18 18 18 18 18 18 18 18
18 18 19 19 19 19 19 19 19 19 19 19 19 19 19 19 19 19 19 19 19 19 19 19 19 19 19 18 18 18 18 18 18 18 18 18 18 18 18 18 18 18 18
18 18 18 18 18 19 19 19 18 18 18 19 19 19 19 19 19 19 18 18 18 19 19 19 19 19 19 18 18 18 18 18 18 18 18 18 18 18 18 18 18 18 18
17 17 17 18 18 18 18 18 18 18 18 18 18 18 18 19 19 18 18 18 18 18 19 19 19 19 19 18 18 18 18 18 18 18 18 18 18 18 18 18 18 18 18
17 17 17 17 17 17 18 18 18 18 18 18 18 18 18 18 18 18 18 18 18 18 18 19 19 19 18 18 18 18 18 18 18 18 18 18 18 18 18 18 18 18 18
17 17 17 17 17 17 17 17 17 17 18 18 18 18 18 18 18 18 18 18 18 18 18 18 18 18 18 18 18 18 18 18 18 18 18 18 18 18 18 18 18 18 18
16 16 16 16 16 16 17 17 17 17 17 18 18 18 18 18 18 18 18 18 18 18 18 18 18 18 18 18 18 18 18 18 18 18 18 18 18 18 18 18 18 18 18
15 15 15 15 15 16 16 16 16 17 17 17 17 17 18 18 18 18 18 18 18 18 18 18 18 18 18 18 18 19 19 18 18 18 18 18 18 18 18 18 18 18 18
15 15 15 15 15 15 15 16 16 16 16 17 17 17 17 17 17 18 18 18 18 18 18 18 18 18 18 18 19 19 19 19 19 18 18 18 18 18 18 18 18 18 18
14 14 14 14 14 15 15 15 15 15 16 16 16 16 17 17 17 17 17 18 18 18 18 18 18 18 18 19 19 19 19 19 19 18 18 18 18 18 18 18 18 18 18
14 14 14 14 14 14 14 14 15 15 15 15 16 16 16 16 17 17 17 17 17 17 18 18 18 18 18 18 19 19 19 19 19 19 19 18 18 18 18 18 18 18 18
14 14 13 13 13 13 14 14 14 14 15 15 15 15 16 16 16 16 17 17 17 17 17 18 18 18 18 18 18 18 19 19 19 19 19 18 18 18 18 18 18 18 18
13 13 13 13 13 13 13 13 13 14 14 14 15 15 15 15 16 16 16 16 17 17 17 17 17 17 17 18 18 18 18 18 18 18 18 18 18 18 18 18 18 18 18
13 13 13 13 13 13 13 13 13 14 14 14 14 15 15 15 15 16 16 16 16 16 17 17 17 17 17 17 18 18 18 18 18 18 18 18 18 18 18 18 18 18 18
13 13 13 12 12 12 13 13 13 13 13 13 14 14 14 15 15 15 15 16 16 16 16 17 17 17 17 17 17 17 18 18 18 18 18 18 18 18 18 18 18 18 18
13 13 12 12 12 12 12 12 12 13 13 13 13 14 14 14 15 15 15 15 15 16 16 16 16 16 16 17 17 17 17 17 18 18 18 18 18 18 18 18 18 18 18
13 13 12 12 12 12 12 12 12 12 12 13 13 13 14 14 14 14 15 15 15 15 16 16 16 16 16 16 17 17 17 17 17 18 18 18 18 18 18 18 18 18 17
Wind_Speed
5 9 14 14 14 14 13 12 12 11 10 10 10 10 10 9 9 9 9 9 9 9 9 9 9 9 9 9 9 9 9 9 10 10 10 10 11 11 10 11 10 9 10
9 12 15 14 14 14 13 12 12 11 10 10 9 9 9 9 8 8 8 8 8 7 7 8 8 8 8 8 8 8 8 8 8 8 9 9 10 11 11 10 10 9 10
11 12 14 14 14 14 13 12 11 11 10 10 9 9 9 8 8 7 7 7 7 6 6 7 7 7 7 6 6 6 7 6 6 6 7 7 8 10 10 10 9 9 9
13 13 12 13 13 13 12 12 11 10 10 9 9 9 8 8 7 7 7 6 6 6 6 6 6 6 6 5 5 5 5 6 6 6 6 6 7 8 9 9 9 9 8
12 13 13 14 13 12 12 11 11 10 10 9 9 8 8 7 6 6 6 6 6 5 5 5 5 5 4 3 3 3 4 5 6 7 8 8 7 8 8 8 8 8 7
12 14 15 15 13 12 12 11 11 10 10 9 8 8 7 7 6 6 6 6 5 5 5 4 4 4 3 2 1 2 3 4 6 8 7 7 7 7 8 8 8 8 7
11 14 15 16 15 13 12 12 11 10 10 9 9 8 8 7 6 6 6 6 5 5 4 4 4 4 3 2 1 0 1 3 6 7 6 6 7 7 8 8 8 8 8
11 12 14 16 15 14 13 13 12 11 11 10 10 9 8 8 7 7 6 6 6 5 5 5 4 4 5 4 3 2 0 1 5 6 6 6 7 7 8 8 8 8 8
5 5 6 10 13 14 14 14 13 13 12 12 11 10 10 9 9 8 7 7 7 6 6 6 5 6 6 6 5 4 2 0 4 5 6 6 7 8 8 8 8 8 8
7 5 3 1 4 9 13 14 15 15 14 13 13 12 12 11 10 10 9 9 9 8 8 7 7 7 7 7 7 6 3 1 3 5 7 8 9 9 9 8 8 8 8
7 5 5 4 4 3 7 12 15 15 15 15 14 14 13 12 11 11 11 11 11 11 10 9 9 9 8 8 8 7 4 3 3 6 8 10 10 9 9 9 8 8 8
6 5 4 4 4 4 3 6 10 12 13 14 14 14 13 13 13 12 13 14 14 13 12 11 11 10 9 8 8 7 4 4 5 7 9 12 11 10 10 9 9 8 8
4 4 4 3 5 5 4 4 3 6 8 10 12 14 13 12 11 11 10 12 14 14 11 11 11 9 8 8 7 6 6 5 7 8 10 13 13 11 11 10 9 9 8
5 5 5 3 3 4 4 4 3 3 4 6 10 13 11 7 7 7 7 9 10 10 9 9 8 9 9 10 9 7 7 7 8 10 12 15 14 13 12 11 9 9 9
6 6 5 5 4 3 3 4 4 4 4 6 8 11 12 7 6 6 6 8 9 10 9 7 7 7 7 8 9 9 7 9 10 11 12 16 15 14 13 12 10 9 9
6 7 6 6 5 4 3 3 3 5 5 5 7 9 10 10 7 5 5 5 7 9 10 8 8 6 6 6 7 8 8 10 12 13 12 15 16 15 13 12 11 10 10
5 6 7 7 5 5 5 5 4 5 6 5 6 8 9 9 8 6 6 6 6 8 9 8 8 6 6 6 7 7 7 10 12 13 14 13 14 15 14 13 12 11 11
6 6 7 8 7 7 6 5 5 6 6 6 7 7 8 8 8 6 6 6 7 7 5 5 5 5 5 5 5 5 6 7 10 13 14 14 14 13 14 15 14 13 12
6 6 7 7 7 7 7 6 5 5 5 6 6 6 7 7 8 6 5 5 7 5 5 6 5 5 5 5 5 5 5 7 8 10 10 13 14 14 14 15 16 15 14
6 6 7 7 7 7 6 5 4 5 5 5 5 6 7 7 7 6 4 5 5 5 6 5 4 4 3 4 4 3 4 6 7 8 10 11 12 14 15 14 15 15 15
7 7 7 7 8 6 5 4 4 5 5 5 4 6 7 7 7 5 5 5 6 6 7 7 5 4 3 3 3 1 1 1 5 7 7 7 9 13 14 14 14 13 13
7 7 7 8 8 7 5 5 4 5 5 5 4 4 6 6 6 5 6 6 6 6 6 7 5 4 4 4 4 3 1 2 2 3 5 8 9 9 10 14 14 14 14
7 7 8 8 8 8 7 5 5 4 4 3 4 4 4 6 6 5 6 6 7 7 7 8 7 7 5 4 3 5 5 5 3 2 3 5 7 7 8 10 13 15 15
7 7 7 7 7 8 7 6 6 4 4 5 4 5 6 5 5 6 6 6 7 7 7 8 8 6 6 5 3 3 3 4 4 3 1 1 4 6 7 7 9 13 15
6 7 7 7 7 8 7 7 6 5 5 5 5 6 6 5 5 5 5 6 7 7 7 7 7 7 6 6 5 4 3 2 2 4 3 2 2 2 4 5 5 9 14
6 6 7 7 8 8 8 8 7 7 7 7 7 6 5 5 5 5 5 5 6 6 7 8 8 8 8 7 6 5 4 4 4 3 3 3 3 1 1 2 3 5 11
Wind_Direction
160 163 149 143 140 140 138 137 135 132 129 126 121 117 112 107 102 98 94 91 86 83 84 88 92 87 83 78 73 70 71 73 77 79 79 77 73 73 86 96 91 90 94
156 158 149 144 142 142 142 141 140 137 135 133 130 126 122 117 112 107 104 100 96 91 91 94 99 96 89 82 73 68 68 71 79 84 82 80 76 76 86 97 97 98 98
146 151 149 147 144 143 143 143 141 139 138 137 136 133 130 126 122 118 114 110 107 103 101 102 103 103 98 87 75 69 64 65 72 90 93 87 80 80 87 94 98 100 102
145 149 151 150 147 145 145 145 145 144 142 142 141 139 136 133 131 128 124 120 118 115 112 112 109 109 107 97 83 70 59 55 65 97 104 92 83 84 89 94 98 100 103
146 150 153 153 151 150 150 149 149 149 149 148 148 147 145 143 143 140 135 132 130 127 125 125 122 119 115 105 87 64 52 52 71 101 106 96 89 89 89 93 98 99 100
150 154 158 158 157 157 157 157 156 156 157 157 158 160 159 158 155 153 151 147 144 142 141 141 140 137 133 126 102 54 43 48 87 115 118 111 102 97 93 94 97 101 102
156 162 166 165 166 166 167 167 168 169 170 171 171 173 173 172 171 168 167 163 161 163 163 163 164 166 170 177 185 228 33 50 111 130 133 125 117 107 103 100 99 101 101
158 165 172 174 175 177 178 179 180 181 183 184 185 185 186 187 187 185 183 178 177 181 183 183 188 194 200 209 219 232 261 69 122 147 150 142 132 120 113 107 104 103 104
114 139 168 186 188 189 190 192 193 193 194 195 195 195 196 197 197 197 196 193 191 193 197 201 207 213 217 223 230 238 251 119 132 157 160 157 149 136 125 117 112 107 106
58 50 35 334 219 211 207 206 205 204 203 203 203 203 202 204 205 207 208 206 205 207 209 211 216 222 227 233 238 240 237 143 152 180 169 170 161 146 135 126 120 112 107
40 34 30 17 356 298 243 226 220 215 212 211 210 209 208 208 211 215 216 215 216 215 216 218 221 226 232 239 243 243 230 164 184 182 177 178 165 152 144 136 128 123 119
25 16 18 3 345 337 297 257 237 228 222 216 214 214 212 209 213 220 225 224 222 220 220 223 226 231 236 242 250 251 225 189 192 187 188 179 169 159 151 145 141 136 131
16 7 0 352 351 349 331 317 263 241 234 226 222 220 218 213 214 223 227 231 227 223 221 227 230 233 235 238 242 242 224 201 197 193 192 181 173 165 159 156 150 145 140
8 357 348 338 335 336 339 324 300 276 251 238 233 226 218 214 214 216 215 216 212 212 210 220 224 231 236 241 240 234 220 202 197 193 193 185 176 170 166 164 159 154 149
0 347 337 333 327 322 324 320 321 298 275 263 253 237 219 211 211 209 209 209 210 211 210 216 221 225 234 240 240 230 213 199 192 190 192 187 178 173 170 170 167 163 158
354 343 335 326 318 322 306 293 290 291 290 284 266 254 234 220 213 202 200 204 209 213 218 221 223 219 226 229 232 225 207 193 189 189 189 187 182 178 175 175 174 171 167
343 341 339 330 325 320 309 300 299 289 287 278 270 264 250 235 220 207 203 201 204 207 218 227 231 227 230 228 227 217 195 185 182 185 186 185 183 183 180 180 178 178 177
350 342 333 339 334 318 304 296 295 293 286 280 276 271 262 253 238 217 209 205 197 193 205 217 217 217 229 220 213 205 189 179 178 183 185 185 182 185 187 187 184 184 185
352 346 341 335 333 324 313 299 293 293 288 282 277 271 266 260 248 229 219 211 195 186 197 217 208 200 211 212 207 200 184 178 176 184 186 188 187 188 188 192 190 188 189
352 349 341 336 333 329 321 313 304 300 293 288 279 271 267 260 252 237 229 221 199 194 196 200 203 203 200 196 202 199 194 186 179 185 189 190 191 193 192 191 191 194 195
349 346 339 335 329 333 328 319 308 302 297 294 282 279 274 261 251 237 235 224 207 203 205 196 191 198 202 174 141 174 319 200 186 187 185 184 190 195 194 193 193 194 198
338 335 335 336 330 329 319 300 275 275 277 274 281 291 284 273 258 245 228 220 213 207 205 201 191 185 197 177 154 144 163 329 282 195 181 188 191 189 191 196 195 196 196
334 332 334 328 328 326 325 319 314 307 302 308 307 299 289 282 265 250 235 225 217 207 207 205 197 190 196 197 178 157 159 200 226 262 197 190 185 183 191 194 197 199 199
323 324 324 323 326 327 329 331 325 320 303 286 287 287 292 290 274 256 242 231 225 220 213 210 202 196 189 194 198 197 174 160 159 190 259 190 180 182 187 192 198 201 200
320 326 322 325 328 328 330 331 325 317 299 294 295 298 300 297 287 269 247 235 230 224 219 213 205 200 197 193 184 179 171 159 143 147 176 179 149 173 178 179 182 193 198
321 330 330 334 328 328 331 330 326 319 316 316 314 313 310 302 295 285 260 242 233 225 219 214 207 205 205 198 191 183 171 164 173 157 160 169 168 179 149 151 165 183 191
Height
1552 1554 1555 1557 1557 1558 1559 1560 1561 1561 1562 1562 1563 1563 1563 1564 1564 1564 1564 1563 1563 1563 1563 1563 1563 1564 1563 1563 1563 1563 1562 1562 1561 1561 1560 1560 1559 1559 1559 1559 1558 1558 1559
1552 1554 1556 1557 1558 1559 1559 1560 1561 1561 1562 1562 1563 1563 1563 1563 1563 1563 1563 1563 1563 1563 1563 1563 1564 1564 1564 1564 1564 1563 1563 1563 1562 1562 1562 1561 1560 1560 1560 1559 1559 1559 1560
1553 1554 1556 1557 1558 1559 1559 1560 1561 1561 1562 1562 1562 1563 1563 1563 1563 1563 1563 1563 1563 1563 1563 1563 1563 1564 1564 1564 1564 1564 1564 1564 1563 1563 1563 1562 1561 1561 1560 1560 1560 1560 1560
1553 1555 1556 1557 1558 1559 1559 1560 1560 1561 1561 1562 1562 1562 1562 1563 1563 1563 1563 1563 1563 1563 1563 1563 1563 1563 1564 1564 1564 1564 1564 1564 1564 1564 1563 1563 1562 1562 1561 1561 1561 1561 1561
1554 1555 1556 1557 1558 1558 1559 1559 1560 1560 1561 1561 1561 1562 1562 1562 1562 1562 1562 1562 1562 1562 1562 1563 1563 1563 1563 1564 1564 1565 1565 1564 1564 1564 1564 1564 1563 1563 1562 1562 1562 1562 1562
1555 1556 1556 1557 1558 1558 1559 1559 1559 1560 1560 1560 1561 1561 1561 1562 1562 1562 1562 1562 1562 1562 1562 1562 1562 1563 1563 1564 1564 1565 1565 1565 1565 1565 1565 1565 1564 1564 1563 1563 1563 1563 1563
1555 1556 1557 1557 1557 1558 1558 1559 1559 1559 1559 1560 1560 1560 1561 1561 1561 1561 1561 1561 1561 1561 1561 1561 1562 1562 1563 1563 1564 1565 1565 1565 1565 1565 1565 1565 1565 1565 1564 1564 1564 1564 1564
1556 1556 1557 1557 1557 1558 1558 1558 1558 1558 1559 1559 1559 1559 1560 1560 1560 1560 1561 1561 1561 1560 1560 1561 1561 1561 1562 1563 1564 1564 1565 1565 1565 1565 1565 1566 1565 1565 1565 1565 1565 1565 1565
1556 1556 1556 1557 1557 1557 1557 1557 1557 1557 1557 1558 1558 1558 1558 1558 1559 1559 1559 1559 1559 1559 1560 1560 1560 1560 1561 1562 1563 1564 1564 1565 1565 1565 1566 1566 1566 1565 1565 1565 1565 1565 1566
1555 1555 1555 1555 1555 1556 1556 1556 1556 1556 1556 1556 1556 1556 1556 1557 1557 1558 1558 1558 1558 1558 1558 1559 1559 1559 1560 1561 1562 1563 1564 1564 1565 1565 1566 1566 1566 1566 1566 1566 1566 1566 1567
1555 1554 1554 1554 1553 1553 1553 1553 1554 1554 1554 1554 1554 1554 1554 1555 1555 1556 1556 1557 1557 1557 1557 1557 1558 1558 1559 1560 1561 1562 1563 1564 1565 1565 1566 1566 1566 1566 1566 1566 1566 1567 1567
1554 1554 1553 1552 1552 1551 1551 1551 1551 1551 1551 1551 1552 1552 1552 1552 1553 1553 1554 1555 1555 1555 1556 1556 1557 1557 1558 1559 1560 1561 1562 1563 1564 1565 1566 1566 1566 1566 1566 1566 1566 1567 1568
1554 1553 1552 1551 1550 1549 1548 1548 1547 1548 1548 1548 1549 1549 1549 1549 1550 1551 1551 1552 1553 1554 1554 1555 1555 1556 1557 1558 1559 1560 1562 1563 1564 1564 1565 1565 1565 1565 1566 1566 1566 1567 1568
1553 1552 1550 1549 1547 1546 1545 1545 1544 1544 1544 1545 1545 1545 1546 1546 1546 1547 1548 1549 1550 1551 1552 1553 1554 1555 1556 1557 1558 1559 1561 1562 1563 1564 1564 1565 1565 1565 1565 1566 1566 1567 1568
1553 1551 1549 1547 1545 1544 1542 1542 1541 1541 1541 1541 1541 1541 1542 1542 1543 1544 1545 1546 1547 1549 1550 1551 1552 1553 1555 1556 1557 1558 1559 1561 1562 1563 1564 1564 1564 1565 1565 1565 1566 1567 1568
1551 1549 1547 1545 1543 1541 1539 1538 1537 1537 1536 1536 1536 1537 1538 1538 1539 1540 1541 1542 1544 1545 1547 1549 1550 1552 1553 1554 1555 1557 1558 1559 1561 1562 1563 1563 1564 1564 1564 1565 1565 1566 1567
1549 1547 1545 1542 1540 1538 1536 1535 1534 1533 1532 1532 1532 1533 1533 1534 1535 1536 1537 1538 1539 1541 1544 1545 1547 1549 1550 1552 1553 1554 1556 1557 1559 1560 1562 1562 1563 1563 1563 1564 1564 1565 1567
1548 1545 1542 1539 1537 1534 1532 1531 1529 1528 1528 1527 1527 1528 1528 1529 1530 1531 1532 1534 1535 1537 1539 1541 1543 1545 1547 1549 1550 1552 1553 1555 1557 1558 1560 1561 1562 1562 1563 1563 1564 1565 1566
1546 1543 1539 1536 1534 1531 1529 1527 1525 1524 1523 1523 1522 1523 1523 1524 1525 1526 1528 1529 1531 1533 1535 1537 1539 1541 1543 1545 1547 1549 1551 1553 1554 1556 1558 1559 1561 1561 1562 1562 1563 1564 1565
1544 1540 1537 1533 1530 1527 1525 1523 1521 1520 1519 1518 1518 1518 1518 1519 1520 1521 1522 1524 1526 1527 1530 1532 1535 1537 1539 1542 1545 1547 1549 1550 1552 1554 1555 1557 1559 1560 1561 1562 1562 1563 1564
1541 1538 1534 1530 1527 1524 1521 1519 1517 1515 1514 1514 1513 1513 1513 1513 1514 1516 1517 1519 1521 1522 1524 1527 1530 1532 1535 1538 1541 1543 1546 1548 1549 1551 1553 1554 1556 1558 1559 1561 1562 1562 1563
1539 1535 1531 1528 1524 1521 1518 1516 1514 1512 1510 1509 1509 1509 1508 1508 1509 1510 1511 1513 1515 1517 1519 1522 1524 1527 1530 1533 1536 1539 1541 1545 1545 1547 1549 1551 1553 1555 1557 1559 1560 1561 1562
1538 1534 1530 1526 1523 1519 1516 1513 1511 1509 1507 1506 1505 1504 1504 1504 1504 1505 1506 1507 1509 1512 1514 1516 1519 1521 1524 1528 1531 1534 1536 1538 1541 1543 1545 1548 1550 1552 1554 1556 1558 1560 1561
1537 1533 1529 1525 1521 1518 1514 1511 1508 1505 1503 1502 1501 1499 1499 1499 1499 1499 1500 1501 1503 1505 1508 1511 1513 1515 1519 1522 1525 1529 1532 1533 1536 1538 1541 1544 1546 1548 1550 1553 1555 1557 1559
1537 1532 1528 1524 1520 1517 1513 1509 1506 1503 1501 1499 1497 1496 1495 1494 1494 1494 1495 1496 1497 1500 1502 1505 1507 1510 1513 1516 1519 1522 1526 1529 1531 1533 1535 1539 1542 1544 1546 1549 1551 1553 1555
1536 1532 1528 1524 1520 1516 1512 1508 1505 1502 1499 1496 1494 1492 1491 1490 1490 1490 1490 1491 1492 1494 1496 1499 1502 1504 1507 1510 1514 1517 1520 1523 1525 1528 1531 1534 1537 1540 1542 1544 1547 1549 1551